Weather in Bairnsdale

Australia     37°49′38″S   147°37′18″E
temp.,
°C
wind,
m/s
gust,
m/s
humid.,
%
clouds,
%
prec.,
mm/h
press.,
hPa
HPBL,
m
7 may, fri
fri701:00+12nne22955 0.0 101641
04:00+11nnw21965 0.0 101524
07:00+11nnw11945 0.0 101516
10:00+19w125896 0.0 1014373
13:00+22ssw2349100 0.0 1011828
16:00+21sse125854 0.0 1010257
19:00+14n118562 0.1 101111
22:00+14nw119087 0.1 101115
8 may, sat
sat801:00+12nw229770 0.8 101143
04:00+12nne1296100 1.7 101027
07:00+12nnw2293100 0.1 101238
10:00+17nw12722 0.1 1012262
13:00+21ssw234646 0.0 10111335
16:00+18ssw2357100 0.1 1012150
19:00+14ene118178 0.1 101624
22:00+14n1186100 0.2 101823
9 may, sun
sun901:00+13w118597 0.0 101853
04:00+11wnw119655 0.0 101711
07:00+10nnw11986 0.0 101811
10:00+16ssw01692 0.0 1018505
13:00+21ssw254572 0.0 10141570
16:00+19w035338 0.0 1014225
19:00+13nnw2273100 0.0 101536
22:00+12n25785 0.0 101484
10 may, mon
mon1001:00+11nnw23795 0.0 101255
04:00+12nnw2480100 0.0 100986
07:00+13nw2571100 0.0 1009278
10:00+18w6164399 0.0 10101941
13:00+18wsw6114721 0.1 10122012
16:00+13sw5106318 0.1 10151094
19:00+10sw3106298 0.0 1020751
22:00+8nw1267100 0.0 102138
11 may, tue
tue1101:00+7nw2273100 0.0 102150
04:00+7nw2274100 0.0 102237
07:00+7nw2274100 0.0 102452
10:00+12w125382 0.0 1025714
13:00+13s325385 0.0 10251181
16:00+11se247570 0.0 1027614
19:00+7n119622 0.0 102913
22:00+6n11975 0.0 103017